Location: Aranbee
(34.0885°N, 118.2342°W)
Time: 22:37:00
(UTC+00:00)

Tiros 1 - Pass Details

Date: 28 November 2020
Orbit: 630 x 663 km, 48.4° (Epoch: 19 January)

Event Time Altitude Azimuth Distance (km) Brightness Sun altitude
Rises 03:34:00 0° 312° (NW) 2,981 11.1 -34.7°
Enters shadow 03:36:28 - 327° (NNW) 2,227 10.2 -35.2°
Reaches altitude 10° 03:37:05 10° 332° (NNW) 2,063 - -35.3°
Maximum altitude 03:40:17 18° 14° (NNE) 1,609 - -36.0°
Drops below altitude 10° 03:43:28 10° 57° (ENE) 2,046 - -36.7°
Sets 03:46:30 0° 77° (ENE) 2,948 - -37.3°
